WGS F4 (USA 233)

Last updated on Tue Sep 22 2026 00:03:12 GMT+0000 (Coordinated Universal Time)

1 38070U 12003A 26264.07896221 -.00000219 00000+0 00000+0 0 9990 2 38070 0.0141 157.0885 0000237 254.7635 64.9452 1.00274624 45111
UTC large
Height (km)
Speed (km/s)
/
Latitude / Longitude
Inclination (degrees)
Orbital Period (minutes)
Azimuth
Elevation
Range (km)
Doppler Factor

Next 0 passes for location: London (51.5072 / 0.1276)

No passes found over London.
WGS F4 (USA 233)